Weather History for Rifle, CO

Change the Weather History Date:

Wednesday, February 8, 2012

  Actual Average Record
Temperature  
Mean Temperature 26 °F 29 °F  
Max Temperature 35 °F 40 °F 61 °F (1954)
Min Temperature 16 °F 17 °F -33 °F (1933)
Degree Days  
Heating Degree Days 39 36  
Month to date heating degree days 281 299  
Since 1 July heating degree days 4093 4334  
Cooling Degree Days 0 0  
Month to date cooling degree days 0  
Year to date cooling degree days 0  
Moisture  
Dew Point 19 °F    
Average Humidity 69    
Maximum Humidity 100    
Minimum Humidity 38    
Precipitation  
Precipitation T in 0.02 in 0.30 in (1990)
Month to date precipitation T 0.18  
Year to date precipitation 0.57 0.99  
Sea Level Pressure  
Sea Level Pressure 30.34 in    
Wind  
Wind Speed 1 mph (South)    
Max Wind Speed 6 mph    
Max Gust Speed 7 mph    
Visibility 7 miles    
Events Snow    
T = Trace of Precipitation, MM = Missing Value Source: NWS Daily Summary

Daily Weather History Graph

Daily Weather History Graph

Search for Another Location

Airport:

Trip Planner

Search our weather history database for the weather conditions in past years. The results will help you decide how hot, cold, wet, or windy it might be!

Date:

Astronomy

Feb. 08, 2012 Rise Set
Actual Time 7:11 AM MST 5:38 PM MST
Civil Twilight 6:43 AM MST 6:06 PM MST
Nautical Twilight 6:12 AM MST 6:38 PM MST
Astronomical Twilight 5:40 AM MST 7:10 PM MST
Moon 7:01 PM MST (2/8) 7:17 AM MST (2/8)
Length of Visible Light 11h 23m
Length of Day
10h 27m
Full, 99% of the Moon is Illuminated
Feb 8
Full
Feb 14
Last Quarter
Feb 21
New
Feb 29
First Quarter
Mar 8
Full

Hourly Weather History & Observations

Time (MST) Temp. Windchill Dew Point Humidity Pressure Visibility Wind Dir Wind Speed Gust Speed Precip Events Conditions
12:53 AM 19.0 °F - 12.9 °F 77% 30.37 in 10.0 mi Calm Calm - N/A   Clear
1:53 AM 18.0 °F 11.1 °F 12.9 °F 81% 30.36 in 10.0 mi ESE 4.6 mph - N/A   Clear
2:53 AM 18.0 °F - 12.9 °F 81% 30.36 in 10.0 mi Calm Calm - N/A   Clear
3:53 AM 19.0 °F - 14.0 °F 81% 30.35 in 10.0 mi Calm Calm - N/A   Clear
4:53 AM 19.9 °F - 15.1 °F 81% 30.36 in 10.0 mi Calm Calm - N/A   Overcast
5:53 AM 21.0 °F - 16.0 °F 81% 30.38 in 10.0 mi Calm Calm - N/A   Mostly Cloudy
6:53 AM 21.0 °F - 16.0 °F 81% 30.40 in 10.0 mi Calm Calm - N/A   Overcast
7:53 AM 23.0 °F - 15.1 °F 72% 30.42 in 10.0 mi Calm Calm - N/A   Overcast
8:53 AM 25.0 °F - 14.0 °F 63% 30.41 in 10.0 mi Calm Calm - N/A   Overcast
9:53 AM 27.0 °F - 15.1 °F 61% 30.42 in 10.0 mi Calm Calm - N/A   Overcast
10:53 AM 28.9 °F - 14.0 °F 54% 30.40 in 10.0 mi Calm Calm - N/A   Overcast
11:53 AM 30.9 °F - 14.0 °F 50% 30.39 in 10.0 mi Calm Calm - N/A   Overcast
12:53 PM 30.9 °F - 14.0 °F 50% 30.37 in 10.0 mi Calm Calm - N/A   Overcast
1:53 PM 33.1 °F - 14.0 °F 46% 30.34 in 10.0 mi Calm Calm - N/A   Overcast
2:53 PM 34.0 °F - 12.9 °F 42% 30.33 in 10.0 mi Calm Calm - N/A   Overcast
3:53 PM 35.1 °F - 12.9 °F 40% 30.31 in 10.0 mi Calm Calm - N/A   Overcast
4:53 PM 35.1 °F - 14.0 °F 42% 30.30 in 10.0 mi Calm Calm - N/A   Overcast
5:53 PM 34.0 °F - 16.0 °F 48% 30.31 in 10.0 mi Calm Calm - N/A   Overcast
6:53 PM 34.0 °F 28.8 °F 19.0 °F 54% 30.33 in 10.0 mi SW 5.8 mph - N/A   Overcast
7:28 PM 32.0 °F - 21.2 °F 64% 30.27 in 4.0 mi Calm Calm - 0.00 in Snow Light Snow
7:51 PM 30.2 °F - 24.8 °F 80% 30.27 in 4.0 mi Calm Calm - 0.00 in Snow Light Snow
7:53 PM 30.9 °F - 26.1 °F 82% 30.37 in 4.0 mi Calm Calm - 0.00 in Snow Light Snow
8:17 PM 30.2 °F 24.3 °F 26.6 °F 86% 30.27 in 2.5 mi SSE 5.8 mph - 0.00 in Snow Light Snow
8:43 PM 30.2 °F 26.7 °F 26.6 °F 86% 30.28 in 2.0 mi SSE 3.5 mph - 0.00 in Snow Light Snow
8:46 PM 30.2 °F 26.7 °F 26.6 °F 86% 30.28 in 1.8 mi South 3.5 mph - 0.00 in Snow Light Snow
8:53 PM 30.0 °F - 28.0 °F 92% 30.36 in 1.5 mi Calm Calm - 0.00 in Snow Light Snow
9:17 PM 30.2 °F - 28.4 °F 93% 30.28 in 1.5 mi Calm Calm - 0.00 in Snow Light Snow
9:53 PM 28.9 °F 25.2 °F 28.0 °F 96% 30.36 in 1.5 mi West 3.5 mph - 0.00 in Snow Light Snow
10:53 PM 30.0 °F - 28.0 °F 92% 30.35 in 1.2 mi Calm Calm - 0.00 in Snow Light Snow
11:42 PM 28.4 °F - 28.4 °F 100% 30.28 in 1.8 mi Calm Calm - 0.00 in Snow Light Snow
11:53 PM 28.9 °F - 28.0 °F 96% 30.35 in 2.0 mi Calm Calm - 0.00 in Snow Light Snow